Weather History for Charleston, SC

Change the Weather History Date:

Saturday, December 28, 2013

  Actual Average (KCHS) Record (KCHS)
Temperature  
Mean Temperature 52 °F 49 °F  
Max Temperature 62 °F 59 °F 79 °F (1971)
Min Temperature 41 °F 38 °F 24 °F (2004)
Degree Days  
Heating Degree Days 14 17  
Month to date heating degree days 396  
Since 1 July heating degree days 688  
Cooling Degree Days 0 0  
Month to date cooling degree days 0  
Year to date cooling degree days 2297  
Growing Degree Days 2 (Base 50)    
Moisture  
Dew Point 43 °F    
Average Humidity 72    
Maximum Humidity 100    
Minimum Humidity 54    
Precipitation  
Precipitation 0.04 in 0.10 in 2.19 in (1958)
Month to date precipitation 2.78  
Year to date precipitation 50.70  
Sea Level Pressure  
Sea Level Pressure 30.28 in    
Wind  
Wind Speed 6 mph (NNE)    
Max Wind Speed 13 mph    
Max Gust Speed 18 mph    
Visibility 9 miles    
Events Rain    
T = Trace of Precipitation, MM = Missing Value Source: NWS Daily Summary

Daily Weather History Graph

Daily Weather History Graph

Search for Another Location

Airport:

Trip Planner

Search our weather history database for the weather conditions in past years. The results will help you decide how hot, cold, wet, or windy it might be!

Date:

Astronomy

Dec. 28, 2013 Rise Set
Actual Time 7:21 AM EST 5:22 PM EST
Civil Twilight 6:54 AM EST 5:49 PM EST
Nautical Twilight 6:23 AM EST 6:20 PM EST
Astronomical Twilight 5:53 AM EST 6:50 PM EST
Moon 3:03 AM EST (12/28) 2:05 PM EST (12/28)
Length of Visible Light 10h 55m
Length of Day
10h 01m
Waning Crescent, 19% of the Moon is Illuminated
Dec 28
Waning Crescent
Jan 1
New
Jan 7
First Quarter
Jan 15
Full
Jan 24
Last Quarter

Hourly Weather History & Observations

Time (EST) Temp. Windchill Dew Point Humidity Pressure Visibility Wind Dir Wind Speed Gust Speed Precip Events Conditions
12:15 AM 44.6 °F 41.4 °F 33.8 °F 66% 30.40 in 10.0 mi North 5.8 mph - 0.00 in   Clear
12:35 AM 44.6 °F 41.4 °F 33.8 °F 66% 30.38 in 10.0 mi North 5.8 mph - 0.00 in   Clear
12:55 AM 44.6 °F 43.1 °F 33.8 °F 66% 30.38 in 10.0 mi North 3.5 mph - 0.00 in   Clear
1:15 AM 42.8 °F 41.1 °F 33.8 °F 70% 30.38 in 10.0 mi North 3.5 mph - 0.00 in   Clear
1:35 AM 41.0 °F - 33.8 °F 76% 30.38 in 10.0 mi Calm Calm - 0.00 in   Clear
1:55 AM 42.8 °F 39.3 °F 33.8 °F 70% 30.39 in 10.0 mi North 5.8 mph - 0.00 in   Clear
2:15 AM 42.8 °F 39.3 °F 33.8 °F 70% 30.38 in 10.0 mi North 5.8 mph - 0.00 in   Clear
2:35 AM 42.8 °F 38.6 °F 33.8 °F 70% 30.38 in 10.0 mi North 6.9 mph - 0.00 in   Clear
2:55 AM 42.8 °F 39.3 °F 33.8 °F 70% 30.37 in 10.0 mi North 5.8 mph - 0.00 in   Clear
3:15 AM 42.8 °F 38.6 °F 33.8 °F 70% 30.37 in 10.0 mi North 6.9 mph - 0.00 in   Clear
3:35 AM 42.8 °F 38.0 °F 33.8 °F 70% 30.36 in 10.0 mi North 8.1 mph - 0.00 in   Clear
3:55 AM 42.8 °F 39.3 °F 33.8 °F 70% 30.36 in 10.0 mi North 5.8 mph - 0.00 in   Clear
4:15 AM 42.8 °F 39.3 °F 33.8 °F 70% 30.36 in 10.0 mi North 5.8 mph - 0.00 in   Clear
4:35 AM 42.8 °F 40.1 °F 33.8 °F 70% 30.37 in 10.0 mi North 4.6 mph - 0.00 in   Clear
4:55 AM 42.8 °F - 33.8 °F 70% 30.36 in 10.0 mi Calm Calm - 0.00 in   Clear
5:15 AM 42.8 °F - 33.8 °F 70% 30.35 in 10.0 mi Calm Calm - 0.00 in   Clear
5:35 AM 42.8 °F 38.6 °F 33.8 °F 70% 30.36 in 10.0 mi North 6.9 mph - 0.00 in   Clear
5:55 AM 42.8 °F 40.1 °F 33.8 °F 70% 30.37 in 10.0 mi North 4.6 mph - 0.00 in   Clear
6:15 AM 41.0 °F - 33.8 °F 76% 30.37 in 10.0 mi Calm Calm - 0.00 in   Clear
6:35 AM 41.0 °F - 33.8 °F 76% 30.36 in 10.0 mi Calm Calm - 0.00 in   Clear
6:55 AM 41.0 °F 36.4 °F 33.8 °F 76% 30.36 in 10.0 mi North 6.9 mph - 0.00 in   Clear
7:15 AM 41.0 °F 36.4 °F 33.8 °F 76% 30.37 in 10.0 mi North 6.9 mph - 0.00 in   Clear
7:35 AM 41.0 °F 38.0 °F 33.8 °F 76% 30.37 in 10.0 mi North 4.6 mph - 0.00 in   Clear
7:55 AM 42.8 °F 38.6 °F 35.6 °F 76% 30.37 in 10.0 mi North 6.9 mph - 0.00 in   Clear
8:15 AM 42.8 °F 38.0 °F 35.6 °F 76% 30.37 in 10.0 mi North 8.1 mph - 0.00 in   Clear
8:35 AM 44.6 °F 40.2 °F 37.4 °F 76% 30.37 in 10.0 mi North 8.1 mph - 0.00 in   Clear
8:55 AM 46.4 °F 42.9 °F 37.4 °F 71% 30.37 in 10.0 mi NNE 6.9 mph - 0.00 in   Clear
9:15 AM 50.0 °F - 39.2 °F 66% 30.37 in 10.0 mi NE 6.9 mph - 0.00 in   Clear
9:35 AM 51.8 °F - 39.2 °F 62% 30.37 in 10.0 mi NE 6.9 mph - 0.00 in   Clear
9:55 AM 53.6 °F - 39.2 °F 58% 30.37 in 10.0 mi NNE 8.1 mph - 0.00 in   Clear
10:15 AM 53.6 °F - 39.2 °F 58% 30.37 in 10.0 mi NNE 9.2 mph - 0.00 in   Clear
10:35 AM 55.4 °F - 39.2 °F 54% 30.38 in 10.0 mi NNE 6.9 mph - 0.00 in   Clear
10:55 AM 55.4 °F - 39.2 °F 54% 30.37 in 10.0 mi North 6.9 mph - 0.00 in   Clear
11:15 AM 57.2 °F - 41.0 °F 55% 30.36 in 10.0 mi ENE 5.8 mph - 0.00 in   Clear
11:35 AM 59.0 °F - 42.8 °F 55% 30.35 in 10.0 mi ENE 8.1 mph - 0.00 in   Clear
11:55 AM 60.8 °F - 44.6 °F 55% 30.35 in 10.0 mi East 11.5 mph 17.3 mph 0.00 in   Clear
12:15 PM 59.0 °F - 44.6 °F 59% 30.33 in 10.0 mi East 12.7 mph 18.4 mph 0.00 in   Clear
12:35 PM 60.8 °F - 46.4 °F 59% 30.32 in 9.0 mi ENE 12.7 mph - 0.00 in   Clear
12:55 PM 60.8 °F - 46.4 °F 59% 30.30 in 10.0 mi ENE 5.8 mph - 0.00 in   Clear
1:15 PM 60.8 °F - 46.4 °F 59% 30.29 in 10.0 mi NE 9.2 mph - 0.00 in   Clear
1:35 PM 60.8 °F - 46.4 °F 59% 30.27 in 10.0 mi NE 10.4 mph - 0.00 in   Clear
1:55 PM 60.8 °F - 48.2 °F 63% 30.26 in 10.0 mi NE 9.2 mph - 0.00 in   Clear
2:15 PM 60.8 °F - 48.2 °F 63% 30.25 in 10.0 mi NNE 9.2 mph - 0.00 in   Clear
2:35 PM 60.8 °F - 48.2 °F 63% 30.24 in 10.0 mi NNE 8.1 mph - 0.00 in   Clear
2:55 PM 62.6 °F - 48.2 °F 59% 30.23 in 10.0 mi NE 11.5 mph - 0.00 in   Clear
3:15 PM 62.6 °F - 51.8 °F 68% 30.22 in 10.0 mi ENE 11.5 mph - 0.00 in   Clear
3:35 PM 62.6 °F - 51.8 °F 68% 30.20 in 10.0 mi NE 8.1 mph - 0.00 in   Clear
3:55 PM 62.6 °F - 53.6 °F 72% 30.21 in 10.0 mi NE 9.2 mph - 0.00 in   Partly Cloudy
4:15 PM 62.6 °F - 53.6 °F 72% 30.22 in 10.0 mi Calm Calm - 0.00 in   Mostly Cloudy
4:35 PM 60.8 °F - 51.8 °F 72% 30.21 in 10.0 mi ENE 10.4 mph - 0.00 in   Overcast
4:55 PM 60.8 °F - 50.0 °F 68% 30.21 in 10.0 mi ENE 9.2 mph - 0.00 in   Overcast
5:15 PM 59.0 °F - 48.2 °F 67% 30.21 in 10.0 mi NE 6.9 mph - 0.00 in   Overcast
5:35 PM 59.0 °F - 48.2 °F 67% 30.20 in 10.0 mi NE 9.2 mph - 0.00 in   Overcast
5:55 PM 59.0 °F - 50.0 °F 72% 30.21 in 10.0 mi NE 6.9 mph - 0.00 in   Overcast
6:15 PM 59.0 °F - 50.0 °F 72% 30.19 in 10.0 mi NNE 8.1 mph - 0.00 in   Overcast
6:35 PM 59.0 °F - 51.8 °F 77% 30.19 in 10.0 mi NNE 6.9 mph - 0.00 in   Overcast
6:55 PM 59.0 °F - 51.8 °F 77% 30.19 in 10.0 mi NE 9.2 mph - 0.00 in   Overcast
7:15 PM 59.0 °F - 51.8 °F 77% 30.18 in 10.0 mi NE 6.9 mph - 0.00 in   Overcast
7:35 PM 59.0 °F - 51.8 °F 77% 30.17 in 10.0 mi NNE 5.8 mph - 0.00 in   Overcast
7:55 PM 59.0 °F - 51.8 °F 77% 30.17 in 10.0 mi NE 5.8 mph - 0.00 in   Overcast
8:15 PM 59.0 °F - 51.8 °F 77% 30.17 in 10.0 mi ENE 9.2 mph - 0.00 in   Overcast
8:35 PM 55.4 °F - 50.0 °F 82% 30.16 in 5.0 mi NE 11.5 mph - 0.00 in Rain Light Rain
8:55 PM 55.4 °F - 51.8 °F 88% 30.16 in 5.0 mi NE 6.9 mph - 0.00 in   Overcast
9:15 PM 55.4 °F - 51.8 °F 88% 30.15 in 7.0 mi NE 8.1 mph - 0.00 in   Overcast
9:35 PM 55.4 °F - 53.6 °F 94% 30.14 in 4.0 mi ENE 8.1 mph - 0.00 in   Overcast
9:55 PM 55.4 °F - 53.6 °F 94% 30.13 in 8.0 mi NE 6.9 mph - 0.00 in   Overcast
10:15 PM 55.4 °F - 53.6 °F 94% 30.12 in 2.5 mi NE 4.6 mph - 0.02 in Rain Rain
10:35 PM 55.4 °F - 55.4 °F 100% 30.12 in 5.0 mi Calm Calm - 0.03 in Rain Light Rain
10:55 PM 55.4 °F - 55.4 °F 100% 30.10 in 8.0 mi NE 8.1 mph - 0.03 in   Overcast
11:15 PM 55.4 °F - 55.4 °F 100% 30.08 in 4.0 mi NE 5.8 mph - 0.01 in   Overcast
11:35 PM 55.4 °F - 55.4 °F 100% 30.07 in 6.0 mi Calm Calm - 0.01 in   Overcast
11:55 PM 57.2 °F - 55.4 °F 94% 30.05 in 5.0 mi Calm Calm - 0.01 in   Overcast